Jask, Iran

6:10 PM +0430 on April 28, 2017 (GMT +0430)
Jask

Weather History for OIZJ - December, 2012

Change the Weather History Date:

Monday, December 10, 2012

  Actual Average Record
Temperature  
Mean Temperature 75 °F -  
Max Temperature 82 °F - - ()
Min Temperature 68 °F - - ()
Cooling Degree Days 10    
Growing Degree Days 25 (Base 50)    
Moisture  
Dew Point 57 °F    
Average Humidity 53    
Maximum Humidity 73    
Minimum Humidity 19    
Precipitation  
Precipitation 0.00 in - - ()
Sea Level Pressure  
Sea Level Pressure 29.90 in    
Wind  
Wind Speed 9 mph ()    
Max Wind Speed 18 mph    
Max Gust Speed -    
Visibility 5.7 miles    
Events      
T = Trace of Precipitation, MM = Missing Value Source: Averaged Metar Reports

Daily Weather History Graph

Daily Weather History Graph

Search for Another Location

Airport or City:

Trip Planner

Search our weather history database for the weather conditions in past years. The results will help you decide how hot, cold, wet, or windy it might be!

Date:

Astronomy

Dec. 10, 2012 Rise Set
Actual Time 6:14 AM +0330 4:49 PM +0330
Civil Twilight 5:49 AM +0330 5:14 PM +0330
Nautical Twilight 5:20 AM +0330 5:42 PM +0330
Astronomical Twilight 4:52 AM +0330 6:10 PM +0330
Moon 2:42 AM +0330 (12/10) 2:08 PM +0330 (12/10)
Length of Visible Light 11h 24m
Length of Day
10h 34m
Waning Crescent, 13% of the Moon is Illuminated
Dec 10
Waning Crescent
Dec 13
New
Dec 20
First Quarter
Dec 28
Full
Jan 5
Last Quarter

Hourly Weather History & Observations

Time (+0330) Temp. Heat Index Dew Point Humidity Pressure Visibility Wind Dir Wind Speed Gust Speed Precip Events Conditions
12:30 AM 71.6 °F - 60.8 °F 69% 29.89 in 5.0 mi NNW 11.5 mph - N/A   Clear
3:30 AM 69 °F - 58 °F 60% 29.95 in 5 mi NNW 8.9 mph - -   Haze
3:30 AM 68.0 °F - 59.0 °F 73% 29.89 in 5.0 mi NNW 9.2 mph - N/A   Clear
5:20 AM 68.0 °F - 55.4 °F 64% 29.89 in 5.0 mi Calm Calm - N/A   Clear
5:30 AM 68.0 °F - 55.4 °F 64% 29.89 in 5.0 mi Calm Calm - N/A   Clear
6:30 AM 68.0 °F - 55.4 °F 64% 29.92 in 5.0 mi North 6.9 mph - N/A   Unknown
7:20 AM 69.8 °F - 55.4 °F 60% 29.92 in - NNE 11.5 mph - N/A   Clear
7:30 AM 69.8 °F - 55.4 °F 60% 29.92 in - NNE 11.5 mph - N/A   Clear
8:20 AM 73.4 °F - 42.8 °F 33% 29.95 in - NNE 11.5 mph - N/A   Clear
8:30 AM 73.4 °F - 42.8 °F 33% 29.95 in - NNE 11.5 mph - N/A   Clear
9:20 AM 77.0 °F - 42.8 °F 29% 29.95 in - North 6.9 mph - N/A   Clear
9:30 AM 77 °F - 42 °F 19% 29.97 in 6 mi North 6.7 mph - -  
10:20 AM 78.8 °F - 50.0 °F 36% 29.95 in - ESE 9.2 mph - N/A   Clear
10:30 AM 78.8 °F - 50.0 °F 36% 29.95 in - ESE 9.2 mph - N/A   Clear
11:20 AM 80.6 °F 80.5 °F 55.4 °F 42% 29.92 in - Calm Calm - N/A   Clear
11:30 AM 80.6 °F 80.5 °F 55.4 °F 42% 29.92 in - Calm Calm - N/A   Clear
12:20 PM 80.6 °F - 50.0 °F 34% 29.89 in 6.2 mi South 6.9 mph - N/A   Partly Cloudy
12:30 PM 80.6 °F - 50.0 °F 34% 29.89 in 6.2 mi South 6.9 mph - N/A   Partly Cloudy
1:20 PM 82.4 °F - 50.0 °F 32% 29.86 in 6.2 mi West 11.5 mph - N/A   Partly Cloudy
1:30 PM 82.4 °F - 50.0 °F 32% 29.86 in 6.2 mi West 11.5 mph - N/A   Partly Cloudy
2:20 PM 82.4 °F 83.9 °F 64.4 °F 54% 29.86 in 6.2 mi West 11.5 mph - N/A   Partly Cloudy
2:30 PM 82.4 °F 83.9 °F 64.4 °F 54% 29.86 in 6.2 mi West 11.5 mph - N/A   Partly Cloudy
3:20 PM 80.6 °F 82.3 °F 64.4 °F 58% 29.86 in 6.2 mi WNW 16.1 mph - N/A   Partly Cloudy
3:30 PM 81 °F - 64 °F 47% 29.88 in 7 mi WNW 15.7 mph - -   Scattered Clouds
3:30 PM 80.6 °F 82.3 °F 64.4 °F 58% 29.86 in 6.2 mi WNW 16.1 mph - N/A   Partly Cloudy
4:20 PM 77.0 °F - 66.2 °F 69% 29.86 in 6.2 mi WNW 18.4 mph - N/A   Partly Cloudy
4:30 PM 77.0 °F - 66.2 °F 69% 29.86 in 6.2 mi WNW 18.4 mph - N/A   Partly Cloudy
5:20 PM 75.2 °F - 66.2 °F 73% 29.86 in - WNW 18.4 mph - N/A   Unknown
5:30 PM 75.2 °F - 66.2 °F 73% 29.86 in - WNW 18.4 mph - N/A   Unknown
6:20 PM 75.2 °F - 64.4 °F 69% 29.86 in - WNW 16.1 mph - N/A   Clear
6:30 PM 75.2 °F - 64.4 °F 69% 29.86 in - WNW 16.1 mph - N/A   Clear
7:20 PM 75.2 °F - 62.6 °F 65% 29.89 in - West 13.8 mph - N/A   Clear
7:30 PM 75.2 °F - 62.6 °F 65% 29.89 in - West 13.8 mph - N/A   Clear
8:20 PM 75.2 °F - 59.0 °F 57% 29.89 in - WNW 11.5 mph - N/A   Clear
8:30 PM 75.2 °F - 59.0 °F 57% 29.89 in - WNW 11.5 mph - N/A   Clear
9:20 PM 75.2 °F - 60.8 °F 61% 29.89 in 5.0 mi WNW 11.5 mph - N/A   Clear
9:30 PM 75 °F - 60 °F 50% 29.91 in 5 mi WNW 11.2 mph - -   Haze
9:30 PM 75.2 °F - 60.8 °F 61% 29.89 in 5.0 mi WNW 11.5 mph - N/A   Clear